TOM4AG EGHH-LFLS

Flight info

Callsign TOM4AG
Flight time 1h 17m
Altitude 33000
Route SAM DCT BENBO UL612 OGULO DCT OKASI DCT OKEKO DCT OKEPI DCT MOU DCT OMANI A3 LESPI
Aircraft B738/M-SDE2E3FGHIRWXY/LB1

Departure

Time 2026-04-27 20:19
Airport Bournemouth Airport (EGHH)

Arrival

Time 2026-04-27 21:36
Airport Grenoble Alpes Isère Airport (LFLS)
Time Latitude Longitude Altitude Speed Heading
2026-04-27 20:12 50.77805 -1.83411 42 ft 2 kts 86°
2026-04-27 20:12 50.77804 -1.83435 42 ft 2 kts 87°
2026-04-27 20:13 50.77803 -1.83450 42 ft 1 kts 79°
2026-04-27 20:13 50.77795 -1.83468 42 ft 2 kts 24°
2026-04-27 20:13 50.77786 -1.83471 43 ft 1 kts 355°
2026-04-27 20:13 50.77780 -1.83470 43 ft 0 kts 356°
2026-04-27 20:15 50.77793 -1.83471 42 ft 7 kts 357°
2026-04-27 20:15 50.77866 -1.83479 42 ft 11 kts 353°
2026-04-27 20:16 50.77943 -1.83491 43 ft 10 kts
2026-04-27 20:16 50.77999 -1.83428 42 ft 9 kts 57°
2026-04-27 20:16 50.78031 -1.83336 42 ft 9 kts 63°
2026-04-27 20:16 50.78059 -1.83247 42 ft 9 kts 60°
2026-04-27 20:17 50.78105 -1.83139 42 ft 12 kts 56°
2026-04-27 20:17 50.78121 -1.83016 42 ft 11 kts 97°
2026-04-27 20:17 50.78122 -1.82895 42 ft 10 kts 78°
2026-04-27 20:17 50.78153 -1.82792 42 ft 10 kts 47°
2026-04-27 20:18 50.78208 -1.82732 42 ft 9 kts 17°
2026-04-27 20:18 50.78254 -1.82761 42 ft 7 kts 274°
2026-04-27 20:18 50.78249 -1.82796 42 ft 0 kts 255°
2026-04-27 20:18 50.78237 -1.82869 42 ft 34 kts 255°
2026-04-27 20:19 50.78102 -1.83680 43 ft 115 kts 255°
2026-04-27 20:19 50.77842 -1.85244 84 ft 174 kts 255°
2026-04-27 20:19 50.77534 -1.87063 887 ft 175 kts 258°
2026-04-27 20:19 50.77306 -1.88980 1573 ft 186 kts 270°
2026-04-27 20:20 50.77248 -1.91051 2177 ft 192 kts 274°
2026-04-27 20:20 50.77177 -1.93184 2695 ft 205 kts 271°
2026-04-27 20:20 50.77065 -1.95518 3156 ft 224 kts 270°
2026-04-27 20:20 50.76977 -1.98019 3686 ft 239 kts 275°
2026-04-27 20:21 50.77238 -2.00637 4305 ft 244 kts 297°
2026-04-27 20:21 50.78233 -2.02759 5059 ft 242 kts 327°
2026-04-27 20:21 50.79762 -2.03710 5695 ft 248 kts 356°
2026-04-27 20:21 50.81482 -2.03310 6495 ft 255 kts 20°
2026-04-27 20:22 50.82996 -2.01877 7216 ft 266 kts 38°
2026-04-27 20:22 50.84170 -1.99525 7907 ft 281 kts 61°
2026-04-27 20:22 50.84772 -1.96610 8801 ft 284 kts 73°
2026-04-27 20:22 50.85220 -1.93523 9524 ft 291 kts 74°
2026-04-27 20:23 50.85690 -1.90417 10280 ft 295 kts 72°
2026-04-27 20:23 50.86210 -1.87267 10850 ft 306 kts 71°
2026-04-27 20:23 50.86794 -1.83946 11326 ft 321 kts 70°
2026-04-27 20:23 50.87409 -1.80513 11986 ft 329 kts 70°
2026-04-27 20:24 50.88036 -1.77018 12697 ft 333 kts 70°
2026-04-27 20:24 50.88668 -1.73483 13432 ft 337 kts 69°
2026-04-27 20:24 50.89308 -1.69891 14115 ft 343 kts 69°
2026-04-27 20:24 50.89949 -1.66293 14810 ft 347 kts 69°
2026-04-27 20:25 50.90606 -1.62590 15491 ft 351 kts 70°
2026-04-27 20:25 50.91262 -1.58882 16169 ft 355 kts 70°
2026-04-27 20:25 50.91924 -1.55128 16779 ft 361 kts 70°
2026-04-27 20:25 50.92610 -1.51238 17389 ft 366 kts 70°
2026-04-27 20:26 50.93288 -1.47377 17977 ft 371 kts 70°
2026-04-27 20:26 50.93983 -1.43420 18573 ft 376 kts 70°
2026-04-27 20:26 50.94629 -1.39394 19235 ft 380 kts 75°
2026-04-27 20:26 50.94894 -1.35227 19877 ft 387 kts 85°
2026-04-27 20:27 50.94662 -1.30914 20407 ft 397 kts 98°
2026-04-27 20:27 50.93909 -1.26660 21024 ft 401 kts 109°
2026-04-27 20:27 50.92693 -1.22700 21550 ft 407 kts 120°
2026-04-27 20:27 50.91146 -1.18984 22111 ft 410 kts 124°
2026-04-27 20:28 50.89472 -1.15290 22648 ft 413 kts 125°
2026-04-27 20:28 50.87804 -1.11546 23154 ft 417 kts 123°
2026-04-27 20:28 50.86195 -1.07774 23679 ft 419 kts 122°
2026-04-27 20:28 50.85141 -1.05210 24030 ft 420 kts 122°
2026-04-27 20:29 50.83064 -0.99974 24661 ft 425 kts 120°
2026-04-27 20:29 50.81532 -0.95990 25182 ft 426 kts 120°
2026-04-27 20:29 50.80022 -0.91988 25644 ft 429 kts 120°
2026-04-27 20:29 50.78503 -0.87926 26048 ft 433 kts 119°
2026-04-27 20:30 50.76979 -0.83824 26484 ft 436 kts 119°
2026-04-27 20:30 50.75439 -0.79667 26934 ft 438 kts 119°
2026-04-27 20:30 50.73926 -0.75585 27378 ft 440 kts 119°
2026-04-27 20:30 50.72361 -0.71366 27761 ft 443 kts 119°
2026-04-27 20:31 50.70828 -0.67239 28187 ft 445 kts 119°
2026-04-27 20:31 50.69248 -0.62995 28553 ft 448 kts 119°
2026-04-27 20:31 50.67674 -0.58770 28949 ft 450 kts 119°
2026-04-27 20:31 50.66078 -0.54494 29305 ft 453 kts 119°
2026-04-27 20:32 50.64485 -0.50234 29749 ft 454 kts 120°
2026-04-27 20:32 50.62862 -0.45900 30062 ft 458 kts 120°
2026-04-27 20:32 50.61253 -0.41611 30445 ft 459 kts 120°
2026-04-27 20:32 50.59620 -0.37268 30755 ft 462 kts 120°
2026-04-27 20:33 50.57975 -0.32898 31038 ft 464 kts 121°
2026-04-27 20:33 50.56332 -0.28539 31364 ft 465 kts 121°
2026-04-27 20:33 50.54689 -0.24188 31667 ft 466 kts 121°
2026-04-27 20:33 50.53020 -0.19776 31923 ft 468 kts 121°
2026-04-27 20:34 50.51363 -0.15407 32244 ft 468 kts 121°
2026-04-27 20:34 50.49697 -0.11017 32525 ft 470 kts 121°
2026-04-27 20:34 50.48032 -0.06645 32839 ft 470 kts 122°
2026-04-27 20:34 50.46250 -0.02332 33156 ft 468 kts 126°
2026-04-27 20:35 50.44196 0.01580 33210 ft 469 kts 137°
2026-04-27 20:35 50.41755 0.04861 33213 ft 463 kts 145°
2026-04-27 20:35 50.36467 0.10561 33200 ft 460 kts 149°
2026-04-27 20:36 50.31092 0.15891 33213 ft 460 kts 150°
2026-04-27 20:36 50.25673 0.21266 33200 ft 462 kts 150°
2026-04-27 20:37 50.20290 0.26682 33197 ft 457 kts 149°
2026-04-27 20:37 50.14967 0.32096 33208 ft 459 kts 149°
2026-04-27 20:38 50.09672 0.37513 33194 ft 456 kts 149°
2026-04-27 20:38 50.04369 0.42941 33188 ft 457 kts 149°
2026-04-27 20:39 49.99078 0.48343 33190 ft 456 kts 149°
2026-04-27 20:39 49.93758 0.53760 33181 ft 454 kts 149°
2026-04-27 20:40 49.88477 0.59121 33179 ft 455 kts 149°
2026-04-27 20:40 49.83242 0.64686 33178 ft 457 kts 145°
2026-04-27 20:41 49.78303 0.70818 33176 ft 457 kts 143°
2026-04-27 20:41 49.73428 0.77123 33171 ft 456 kts 143°
2026-04-27 20:42 49.68573 0.83349 33175 ft 456 kts 143°
2026-04-27 20:42 49.63669 0.89547 33178 ft 454 kts 143°
2026-04-27 20:43 49.58789 0.95656 33183 ft 454 kts 144°
2026-04-27 20:43 49.53883 1.01761 33177 ft 453 kts 144°
2026-04-27 20:44 49.48989 1.07829 33172 ft 452 kts 144°
2026-04-27 20:44 49.44102 1.13871 33177 ft 452 kts 144°
2026-04-27 20:45 49.39225 1.19884 33178 ft 451 kts 144°
2026-04-27 20:45 49.34348 1.25884 33177 ft 451 kts 144°
2026-04-27 20:46 49.29460 1.31882 33173 ft 451 kts 144°
2026-04-27 20:46 49.24565 1.37874 33172 ft 452 kts 144°
2026-04-27 20:47 49.19660 1.43861 33164 ft 450 kts 144°
2026-04-27 20:47 49.14777 1.49807 33160 ft 451 kts 144°
2026-04-27 20:48 49.09872 1.55763 33164 ft 451 kts 144°
2026-04-27 20:48 49.05004 1.61658 33156 ft 448 kts 144°
2026-04-27 20:49 49.00091 1.67594 33154 ft 449 kts 146°
2026-04-27 20:49 48.95207 1.73479 33152 ft 449 kts 146°
2026-04-27 20:50 48.90301 1.79374 33150 ft 449 kts 146°
2026-04-27 20:50 48.85416 1.85230 33147 ft 449 kts 146°
2026-04-27 20:51 48.80496 1.91113 33157 ft 449 kts 146°
2026-04-27 20:51 48.75636 1.96912 33151 ft 447 kts 147°
2026-04-27 20:52 48.70743 2.02732 33153 ft 448 kts 147°
2026-04-27 20:52 48.65858 2.08525 33150 ft 449 kts 147°
2026-04-27 20:53 48.60944 2.14339 33147 ft 450 kts 147°
2026-04-27 20:53 48.56060 2.20235 33144 ft 452 kts 143°
2026-04-27 20:54 48.49316 2.30186 33135 ft 455 kts 139°
2026-04-27 20:55 48.44938 2.37020 33138 ft 455 kts 139°
2026-04-27 20:55 48.40506 2.43850 33128 ft 456 kts 139°
2026-04-27 20:56 48.36031 2.50652 33128 ft 458 kts 140°
2026-04-27 20:56 48.31573 2.57358 33127 ft 456 kts 141°
2026-04-27 20:57 48.26713 2.63427 33119 ft 449 kts 153°
2026-04-27 20:57 48.21277 2.67744 33119 ft 441 kts 161°
2026-04-27 20:58 48.15788 2.71839 33116 ft 442 kts 159°
2026-04-27 20:58 48.10353 2.76121 33112 ft 444 kts 159°
2026-04-27 20:59 48.04850 2.80254 33115 ft 439 kts 163°
2026-04-27 20:59 47.99218 2.83841 33112 ft 439 kts 165°
2026-04-27 21:00 47.93606 2.87286 33110 ft 438 kts 165°
2026-04-27 21:00 47.87969 2.90770 33106 ft 440 kts 164°
2026-04-27 21:01 47.82339 2.94286 33112 ft 439 kts 164°
2026-04-27 21:01 47.76710 2.97819 33108 ft 438 kts 164°
2026-04-27 21:02 47.71077 3.01355 33104 ft 441 kts 164°
2026-04-27 21:02 47.65454 3.04887 33102 ft 439 kts 164°
2026-04-27 21:03 47.59853 3.08398 33098 ft 439 kts 164°
2026-04-27 21:03 47.54231 3.11913 33100 ft 438 kts 164°
2026-04-27 21:04 47.48622 3.15404 33096 ft 440 kts 164°
2026-04-27 21:04 47.42942 3.18934 33099 ft 440 kts 164°
2026-04-27 21:05 47.37337 3.22412 33096 ft 438 kts 164°
2026-04-27 21:05 47.31717 3.25887 33097 ft 441 kts 164°
2026-04-27 21:06 47.26025 3.29398 33095 ft 440 kts 164°
2026-04-27 21:06 47.20414 3.32859 33093 ft 441 kts 164°
2026-04-27 21:07 47.14745 3.36347 33091 ft 440 kts 164°
2026-04-27 21:07 47.09100 3.39805 33088 ft 442 kts 164°
2026-04-27 21:08 47.03399 3.43288 33084 ft 443 kts 164°
2026-04-27 21:08 46.97731 3.46744 33079 ft 442 kts 163°
2026-04-27 21:09 46.92074 3.50190 32966 ft 437 kts 163°
2026-04-27 21:09 46.89270 3.51900 32590 ft 431 kts 163°
2026-04-27 21:09 46.86553 3.53560 32249 ft 423 kts 163°
2026-04-27 21:09 46.83839 3.55214 31793 ft 419 kts 163°
2026-04-27 21:10 46.81176 3.56828 31284 ft 417 kts 163°
2026-04-27 21:10 46.78495 3.58449 30769 ft 414 kts 163°
2026-04-27 21:10 46.75869 3.60036 30260 ft 411 kts 163°
2026-04-27 21:10 46.73244 3.61619 29750 ft 409 kts 163°
2026-04-27 21:11 46.70600 3.63210 29232 ft 407 kts 163°
2026-04-27 21:11 46.68010 3.64716 28722 ft 403 kts 164°
2026-04-27 21:11 46.65386 3.66172 28212 ft 400 kts 166°
2026-04-27 21:11 46.62805 3.67570 27712 ft 397 kts 166°
2026-04-27 21:12 46.60217 3.68961 27206 ft 394 kts 165°
2026-04-27 21:12 46.57697 3.70316 26707 ft 391 kts 165°
2026-04-27 21:12 46.55157 3.71685 26209 ft 388 kts 165°
2026-04-27 21:12 46.52623 3.73054 25712 ft 386 kts 165°
2026-04-27 21:13 46.50126 3.74407 25220 ft 383 kts 164°
2026-04-27 21:13 46.47632 3.75760 24728 ft 380 kts 164°
2026-04-27 21:13 46.45191 3.77088 24240 ft 378 kts 163°
2026-04-27 21:13 46.42740 3.78469 23755 ft 376 kts 162°
2026-04-27 21:14 46.40348 3.79855 23277 ft 373 kts 162°
2026-04-27 21:14 46.37936 3.81267 22793 ft 370 kts 162°
2026-04-27 21:14 46.35589 3.82638 22299 ft 368 kts 162°
2026-04-27 21:14 46.33197 3.83984 21766 ft 367 kts 163°
2026-04-27 21:15 46.30832 3.85276 21286 ft 364 kts 163°
2026-04-27 21:15 46.28482 3.86544 20812 ft 361 kts 163°
2026-04-27 21:15 46.26140 3.87803 20336 ft 359 kts 163°
2026-04-27 21:15 46.23800 3.89061 19868 ft 356 kts 163°
2026-04-27 21:16 46.21498 3.90301 19403 ft 353 kts 163°
2026-04-27 21:16 46.19223 3.91527 18944 ft 350 kts 163°
2026-04-27 21:16 46.16952 3.92751 18525 ft 346 kts 162°
2026-04-27 21:16 46.14726 3.93971 18077 ft 344 kts 160°
2026-04-27 21:17 46.12593 3.95575 17619 ft 345 kts 147°
2026-04-27 21:17 46.10923 3.98025 17178 ft 347 kts 124°
2026-04-27 21:17 46.09922 4.01163 16755 ft 345 kts 110°
2026-04-27 21:17 46.09174 4.04411 16298 ft 343 kts 109°
2026-04-27 21:18 46.08438 4.07660 15858 ft 340 kts 109°
2026-04-27 21:18 46.07698 4.10851 15422 ft 337 kts 109°
2026-04-27 21:18 46.06950 4.14011 14991 ft 335 kts 110°
2026-04-27 21:18 46.06194 4.17152 14560 ft 332 kts 110°
2026-04-27 21:19 46.05443 4.20251 14132 ft 329 kts 110°
2026-04-27 21:19 46.04693 4.23331 13700 ft 326 kts 110°
2026-04-27 21:19 46.03940 4.26421 13266 ft 324 kts 109°
2026-04-27 21:20 46.02457 4.32444 12425 ft 319 kts 112°
2026-04-27 21:20 46.01456 4.35234 12091 ft 314 kts 128°
2026-04-27 21:20 45.99886 4.37378 12087 ft 316 kts 145°
2026-04-27 21:20 45.98044 4.39141 12070 ft 320 kts 149°
2026-04-27 21:21 45.96160 4.40830 12075 ft 319 kts 149°
2026-04-27 21:21 45.94266 4.42544 12076 ft 318 kts 148°
2026-04-27 21:21 45.92410 4.44266 12077 ft 319 kts 148°
2026-04-27 21:21 45.90573 4.46002 12075 ft 318 kts 147°
2026-04-27 21:22 45.88723 4.47768 12078 ft 318 kts 147°
2026-04-27 21:22 45.86879 4.49535 12075 ft 318 kts 147°
2026-04-27 21:22 45.85045 4.51293 12081 ft 318 kts 147°
2026-04-27 21:22 45.83223 4.53036 12079 ft 318 kts 147°
2026-04-27 21:23 45.81369 4.54809 12078 ft 318 kts 147°
2026-04-27 21:23 45.79536 4.56558 12073 ft 319 kts 147°
2026-04-27 21:23 45.77692 4.58317 12073 ft 319 kts 147°
2026-04-27 21:23 45.75843 4.60078 12074 ft 319 kts 147°
2026-04-27 21:24 45.74005 4.61828 12069 ft 319 kts 147°
2026-04-27 21:24 45.72169 4.63574 12070 ft 318 kts 147°
2026-04-27 21:24 45.70263 4.65223 12069 ft 318 kts 154°
2026-04-27 21:24 45.68253 4.66540 12069 ft 316 kts 159°
2026-04-27 21:25 45.66224 4.67678 11837 ft 311 kts 161°
2026-04-27 21:25 45.64222 4.68749 11465 ft 308 kts 161°
2026-04-27 21:25 45.62231 4.69825 11047 ft 307 kts 161°
2026-04-27 21:25 45.60240 4.70927 10643 ft 305 kts 160°
2026-04-27 21:26 45.58272 4.72037 10311 ft 300 kts 160°
2026-04-27 21:26 45.56385 4.73111 10170 ft 289 kts 160°
2026-04-27 21:26 45.54546 4.74161 9938 ft 282 kts 160°
2026-04-27 21:26 45.52742 4.75189 9565 ft 281 kts 160°
2026-04-27 21:27 45.50914 4.76228 9227 ft 279 kts 160°
2026-04-27 21:27 45.49117 4.77248 8885 ft 278 kts 159°
2026-04-27 21:27 45.47333 4.78260 8547 ft 276 kts 159°
2026-04-27 21:27 45.45569 4.79261 8217 ft 274 kts 158°
2026-04-27 21:28 45.43808 4.80260 7884 ft 272 kts 158°
2026-04-27 21:28 45.42052 4.81256 7552 ft 270 kts 159°
2026-04-27 21:28 45.40313 4.82241 7215 ft 268 kts 159°
2026-04-27 21:28 45.38586 4.83217 6884 ft 267 kts 158°
2026-04-27 21:29 45.36873 4.84187 6559 ft 265 kts 158°
2026-04-27 21:29 45.35189 4.85139 6297 ft 260 kts 158°
2026-04-27 21:29 45.33548 4.86123 6202 ft 249 kts 153°
2026-04-27 21:29 45.32164 4.87513 6130 ft 243 kts 129°
2026-04-27 21:30 45.31416 4.89617 6031 ft 236 kts 100°
2026-04-27 21:30 45.31397 4.91862 5749 ft 227 kts 79°
2026-04-27 21:30 45.31851 4.93971 5434 ft 219 kts 62°
2026-04-27 21:30 45.32757 4.95647 5263 ft 207 kts 44°
2026-04-27 21:31 45.33761 4.97010 5173 ft 197 kts 44°
2026-04-27 21:31 45.34732 4.98369 5063 ft 192 kts 45°
2026-04-27 21:31 45.35654 4.99730 4962 ft 194 kts 51°
2026-04-27 21:31 45.36229 5.01436 4851 ft 194 kts 81°
2026-04-27 21:32 45.36312 5.03361 4651 ft 196 kts 89°
2026-04-27 21:32 45.36326 5.05273 4460 ft 192 kts 89°
2026-04-27 21:32 45.36334 5.07176 4277 ft 193 kts 89°
2026-04-27 21:32 45.36334 5.09072 4098 ft 189 kts 89°
2026-04-27 21:33 45.36333 5.10923 3946 ft 181 kts 90°
2026-04-27 21:33 45.36332 5.12642 3805 ft 173 kts 90°
2026-04-27 21:33 45.36330 5.14372 3527 ft 173 kts 90°
2026-04-27 21:33 45.36328 5.16075 3308 ft 174 kts 90°
2026-04-27 21:34 45.36326 5.17776 3066 ft 170 kts 89°
2026-04-27 21:34 45.36324 5.19407 2843 ft 163 kts 89°
2026-04-27 21:34 45.36322 5.20945 2664 ft 154 kts 90°
2026-04-27 21:34 45.36319 5.22472 2430 ft 153 kts 90°
2026-04-27 21:35 45.36317 5.23982 2233 ft 153 kts 90°
2026-04-27 21:35 45.36318 5.25485 2025 ft 153 kts 90°
2026-04-27 21:35 45.36313 5.26998 1818 ft 152 kts 92°
2026-04-27 21:35 45.36301 5.28477 1607 ft 151 kts 90°
2026-04-27 21:36 45.36309 5.29982 1399 ft 151 kts 90°
2026-04-27 21:36 45.36297 5.31455 1248 ft 145 kts 90°
2026-04-27 21:36 45.36294 5.32661 1262 ft 90 kts 90°
2026-04-27 21:36 45.36292 5.33255 1274 ft 37 kts 94°
2026-04-27 21:37 45.36292 5.33623 1281 ft 34 kts 90°
2026-04-27 21:37 45.36274 5.33831 1283 ft 13 kts 144°
2026-04-27 21:37 45.36186 5.33844 1283 ft 12 kts 188°
2026-04-27 21:37 45.36137 5.33748 1281 ft 14 kts 266°
2026-04-27 21:38 45.36122 5.33643 1279 ft 8 kts 207°